Date,TemperatureHighF,TemperatureAvgF,TemperatureLowF,DewpointHighF,DewpointAvgF,DewpointLowF,HumidityHigh,HumidityAvg,HumidityLow,PressureMaxIn,PressureMinIn,WindSpeedMaxMPH,WindSpeedAvgMPH,GustSpeedMaxMPH,PrecipitationSumIn
2013-1-1,40.6,37.5,27.5,30.0,24.9,13.0,69,61,47,30.00,29.82,10,4,19,0.00
2013-1-2,34.0,28.7,24.2,18.0,13.8,11.0,61,54,44,30.17,30.00,10,4,18,0.00
2013-1-3,33.9,30.3,26.9,20.0,17.4,15.0,68,59,48,30.18,30.06,13,3,18,0.00
2013-1-4,38.0,35.4,32.3,24.0,22.4,20.0,66,60,52,30.08,29.94,15,4,19,0.00
2013-1-5,43.8,38.0,33.3,25.0,22.4,19.0,61,54,44,30.26,30.01,10,3,20,0.00
2013-1-6,46.3,40.3,34.4,33.0,29.3,24.0,89,66,49,30.21,29.96,7,2,13,0.00
2013-1-7,46.3,42.1,38.8,31.0,26.0,22.0,69,54,39,30.38,30.04,8,2,16,0.00
2013-1-8,48.9,42.1,36.2,34.0,30.9,25.0,73,65,54,30.42,30.33,7,2,13,0.00
2013-1-9,50.3,45.7,39.1,40.0,35.6,31.0,78,68,60,30.38,30.12,10,2,18,0.00
2013-1-10,48.7,45.2,41.5,35.0,26.4,24.0,64,48,38,30.53,30.23,8,3,17,0.00
2013-1-11,46.6,42.9,38.7,46.0,34.6,25.0,96,74,53,30.52,30.08,4,1,8,0.55
2013-1-12,46.6,45.1,43.9,45.0,43.9,43.0,97,95,92,30.16,30.05,9,2,11,0.03
2013-1-13,50.6,46.6,43.3,50.0,45.3,43.0,98,95,89,30.15,30.00,4,1,6,0.00
2013-1-14,57.4,51.4,40.3,53.0,44.3,30.0,99,79,49,30.29,29.90,11,2,14,0.07
2013-1-15,40.0,38.2,36.1,35.0,28.8,25.0,88,70,58,30.33,30.21,9,4,12,0.13
2013-1-16,37.9,35.5,33.1,35.0,33.6,30.0,95,92,78,30.21,29.79,7,2,14,0.78
2013-1-17,44.5,40.9,36.9,35.0,29.2,24.0,86,64,53,30.08,29.90,14,3,17,0.00
2013-1-18,36.8,30.0,26.7,25.0,12.4,5.0,65,49,33,30.48,29.99,10,3,16,0.00
2013-1-19,52.3,41.2,30.1,30.0,24.9,14.0,69,53,38,30.39,29.91,13,3,14,0.00
2013-1-20,54.4,44.2,31.3,31.0,24.6,12.0,66,48,24,30.03,29.68,17,5,25,0.00
2013-1-21,32.8,30.4,27.7,19.0,12.9,8.0,62,49,41,30.08,29.82,11,2,15,0.00
2013-1-22,28.2,20.9,14.6,15.0,2.6,-6.0,68,46,31,30.20,29.82,17,7,24,0.00
2013-1-23,19.5,15.9,12.1,2.0,-2.3,-6.0,55,45,35,30.25,30.16,13,5,20,0.00
2013-1-24,23.9,18.9,15.2,4.0,0.7,-5.0,60,46,32,30.39,30.12,15,5,25,0.00
2013-1-25,24.4,19.0,14.1,18.0,7.3,-1.0,88,62,46,30.41,30.06,11,3,19,0.00
2013-1-26,28.3,22.1,18.0,14.0,10.0,6.0,79,61,43,30.36,30.04,12,4,19,0.00
2013-1-27,35.6,28.0,20.9,14.0,11.2,8.0,68,51,36,30.51,30.36,9,3,15,0.00
2013-1-28,36.5,33.3,29.9,34.0,25.8,13.0,92,76,47,30.48,30.00,6,2,12,0.19
2013-1-29,50.4,43.0,36.6,42.0,39.3,34.0,93,87,72,30.13,29.99,8,2,13,0.05
2013-1-30,57.0,48.9,39.4,53.0,47.0,38.0,98,93,81,30.07,29.36,7,1,15,0.02
2013-1-31,60.6,45.5,30.5,58.0,31.6,10.0,98,61,36,29.78,29.05,23,8,40,0.92